This is the latest recevied weather packets stored in our database for station/object DL8JF-13. If no packets are shown the sender has not sent any weather packets the latest 10 day(s).
| Time | Temp. | Humidity | Pressure | Rain* | Wind** | Luminosity | Snow |
|---|---|---|---|---|---|---|---|
| 1778248133 | 15° C | 43% | 1014.5 hPa | 0 mm | - | - | - |
| 1778247230 | 15.56° C | 39% | 1014.8 hPa | 0 mm | - | - | - |
| 1778246333 | 15.56° C | 37% | 1014.8 hPa | 0 mm | - | - | - |
| 1778245433 | 16.11° C | 39% | 1014.8 hPa | 0 mm | - | - | - |
| 1778244530 | 15.56° C | 37% | 1015 hPa | 0 mm | - | - | - |
| 1778243633 | 16.11° C | 39% | 1014.9 hPa | 0 mm | - | - | - |
| 1778242730 | 15.56° C | 38% | 1014.9 hPa | 0 mm | - | - | - |
| 1778241830 | 15.56° C | 37% | 1015 hPa | 0 mm | - | - | - |
| 1778240933 | 15.56° C | 37% | 1014.9 hPa | 0 mm | - | - | - |
| 1778240030 | 16.11° C | 40% | 1015 hPa | 0 mm | - | - | - |
| 1778239130 | 15.56° C | 37% | 1015 hPa | 0 mm | - | - | - |
| 1778238233 | 15.56° C | 36% | 1015.2 hPa | 0 mm | - | - | - |
| 1778237330 | 15° C | 37% | 1015.2 hPa | 0 mm | - | - | - |
| 1778236433 | 15.56° C | 40% | 1015.2 hPa | 0 mm | - | - | - |
| 1778235533 | 15° C | 40% | 1015.2 hPa | 0 mm | - | - | - |
| 1778234630 | 14.44° C | 43% | 1015.2 hPa | 0 mm | - | - | - |
| 1778233730 | 14.44° C | 46% | 1015.2 hPa | 0 mm | - | - | - |
| 1778232833 | 13.89° C | 48% | 1015.3 hPa | 0 mm | - | - | - |
| 1778231930 | 13.33° C | 47% | 1015.3 hPa | 0 mm | - | - | - |
| 1778231030 | 12.78° C | 50% | 1015.2 hPa | 0 mm | - | - | - |
| 1778230133 | 12.78° C | 52% | 1015.1 hPa | 0 mm | - | - | - |
| 1778229230 | 11.67° C | 54% | 1015.1 hPa | 0 mm | - | - | - |
| 1778228330 | 11.67° C | 54% | 1015.1 hPa | 0 mm | - | - | - |
| 1778227430 | 10.56° C | 57% | 1015 hPa | 0 mm | - | - | - |
| 1778226530 | 10° C | 59% | 1015.2 hPa | 0 mm | - | - | - |
* Rain latest hour (hover to see other rain measurements)
** Current wind speed in m/s (hover to see current wind gust speed)